Location: LDNL
(36.4545°S, 141.6685°E)
Time: 19:22:23
(UTC+10:00)

A-11 Canister half - Pass Details

Date: 29 January 2022
Orbit: 1527 x 1682 km, 47.3° (Epoch: 20 May)

Event Time Altitude Azimuth Distance (km) Brightness Sun altitude
Rises 05:13:26 0° 239° (WSW) 4,901 11.4 -16.8°
Reaches altitude 10° 05:16:39 10° 236° (SW) 3,894 10.9 -16.3°
Maximum altitude 05:26:36 72° 152° (SSE) 1,678 9.3 -14.7°
Drops below altitude 10° 05:36:09 10° 67° (ENE) 3,753 11.5 -13.1°
Sets 05:39:11 0° 65° (ENE) 4,716 12.0 -12.6°
